Flag for U.S.A. Weather past 2 weeks in Las Cruces, New Mexico, U.S.A.

Now
69 °F

Sunny.


Feels Like: 69 °F
Forecast: 63 / 87 °F
Wind: No wind

Location: Las Cruces International

Current Time: Aug 23, 2014 at 9:28:51 AM

Latest Report: Aug 23, 2014 at 8:55 AM


Visibility: 10 mi

Pressure: 30.15 "Hg

Humidity: 75%

Dew point: 60 °F

Location of Las CrucesLocation

Historic Weather in Las Cruces — Graph

°F

Las Cruces temperature yesterday

Maximum temperature yesterday: 78 °F (at 4:55 PM)
Minimum temperature yesterday: 62 °F (at 6:15 AM)
Average temperature yesterday: 71 °F

Past Weeks' High & Low Weather Summary

 TemperatureHumidityPressure
High93 °F (Aug 16, 5:15 PM)96% (Aug 14, 4:55 AM)30.30 "Hg (Aug 14, 4:55 AM)
Low61 °F (Aug 23, 6:55 AM)18% (Aug 18, 5:35 PM)29.93 "Hg (Aug 19, 3:55 PM)
Average77 °F52%30.13 "Hg
* Reported Aug 8 8:15 AM — Aug 23 8:15 AM, Las Cruces, Weather by CustomWeather, © 2014

Note: Actual official high and low records may vary slightly from our data, if they occured in-between our weather recording intervals... More about our weather records

Advertising

Las Cruces weather history for previous 24 hours

 ConditionsComfort  
Time TempWeatherWind HumidityBarometerVisibility
8:15 AM
Aug 23
67 °FSunny.No wind78%30.15 "Hg10 mi
7:55 AM66 °FSunny.No wind81%30.14 "Hg10 mi
7:35 AM65 °FClear.3 mph84%30.15 "Hg10 mi
7:15 AM63 °FClear.No wind92%30.15 "Hg10 mi
6:55 AM61 °FClear.No wind95%30.14 "Hg10 mi
6:35 AM62 °FClear.No wind91%30.13 "Hg10 mi
6:15 AM63 °FClear.No wind89%30.13 "Hg10 mi
5:55 AM63 °FClear.3 mph90%30.13 "Hg10 mi
5:35 AM62 °FClear.No wind93%30.12 "Hg10 mi
5:15 AM62 °FClear.5 mph93%30.12 "Hg10 mi
4:55 AM62 °FClear.No wind93%30.12 "Hg10 mi
4:35 AM63 °FClear.3 mph92%30.11 "Hg10 mi
4:15 AM64 °FClear.3 mph88%30.12 "Hg10 mi
3:55 AM64 °FClear.No wind89%30.12 "Hg10 mi
3:35 AM64 °FClear.3 mph88%30.12 "Hg10 mi
3:15 AM64 °FClear.No wind90%30.12 "Hg10 mi
2:55 AM64 °FClear.No wind89%30.12 "Hg10 mi
2:35 AM65 °FClear.No wind82%30.12 "Hg10 mi
2:15 AM65 °FClear.3 mph87%30.12 "Hg10 mi
1:55 AM65 °FClear.5 mph86%30.11 "Hg10 mi
1:15 AM67 °FClear.7 mph80%30.11 "Hg10 mi
12:55 AM68 °FPassing clouds.7 mph78%30.12 "Hg10 mi
12:15 AM69 °FOvercast.7 mph75%30.12 "Hg10 mi
11:55 PM
Aug 22
70 °FPassing clouds.8 mph72%30.12 "Hg10 mi
11:15 PM70 °FOvercast.8 mph73%30.12 "Hg10 mi
10:55 PM71 °FPassing clouds.7 mph72%30.12 "Hg10 mi
10:15 PM72 °FPassing clouds.9 mph66%30.13 "Hg10 mi
9:55 PM73 °FPassing clouds.9 mph68%30.13 "Hg10 mi
9:35 PM73 °FPassing clouds.12 mph68%30.13 "Hg10 mi
9:15 PM73 °FThundershowers. Passing clouds.10 mph67%30.12 "Hg10 mi
8:55 PM74 °FClear.8 mph66%30.12 "Hg10 mi
8:35 PM74 °FSunny.7 mph65%30.11 "Hg10 mi
8:15 PM74 °FSunny.7 mph65%30.09 "Hg10 mi
7:55 PM74 °FSunny.6 mph64%30.09 "Hg10 mi
7:35 PM74 °FThundershowers. Sunny.8 mph63%30.09 "Hg10 mi
7:15 PM75 °FSunny.7 mph62%30.08 "Hg10 mi
6:55 PM75 °FSunny.8 mph62%30.08 "Hg10 mi
6:35 PM76 °FSunny.7 mph61%30.08 "Hg10 mi
6:15 PM77 °FSunny.10 mph58%30.09 "Hg10 mi
5:55 PM78 °FScattered clouds.9 mph55%30.09 "Hg10 mi
5:15 PM78 °FSunny.9 mph54%30.09 "Hg10 mi
4:55 PM78 °FSunny.8 mph55%30.09 "Hg10 mi
4:35 PM77 °FSunny.8 mph57%30.10 "Hg10 mi
4:15 PM77 °FSunny.7 mph57%30.11 "Hg10 mi
3:55 PM76 °FSunny.7 mph60%30.11 "Hg10 mi
3:35 PM75 °FSunny.7 mph63%30.12 "Hg10 mi
3:15 PM75 °FScattered clouds.7 mph63%30.13 "Hg10 mi
2:55 PM75 °FBroken clouds.6 mph63%30.14 "Hg10 mi
2:35 PM75 °FCloudy.5 mph63%30.15 "Hg10 mi
2:15 PM75 °FBroken clouds.7 mph64%30.16 "Hg10 mi
1:55 PM74 °FPartly sunny.6 mph67%30.16 "Hg10 mi
1:35 PM75 °FScattered clouds.6 mph63%30.16 "Hg10 mi
1:15 PM74 °FBroken clouds.5 mph65%30.17 "Hg10 mi
12:55 PM73 °FBroken clouds.5 mph68%30.17 "Hg10 mi
12:15 PM71 °FBroken clouds.6 mph71%30.17 "Hg10 mi
11:55 AM70 °FMostly cloudy.6 mph73%30.18 "Hg10 mi
11:15 AM70 °FBroken clouds.6 mph74%30.18 "Hg10 mi
10:55 AM71 °FSunny.5 mph73%30.18 "Hg10 mi
10:35 AM70 °FSunny.5 mph75%30.17 "Hg10 mi
10:15 AM69 °FSunny.No wind74%30.17 "Hg10 mi
9:55 AM69 °FScattered clouds.3 mph83%30.16 "Hg10 mi
9:35 AM67 °FScattered clouds.No wind84%30.17 "Hg10 mi
9:15 AM66 °FBroken clouds.7 mph88%30.16 "Hg10 mi
Weather by CustomWeather, © 2014

See weather overviewHow to use our weather pages